[[{"header":{"parameterUnit":"m.s-1","parameterCategory":2,"la1":30.2991,"la2":30.254,"lo1":-89.0895,"lo2":-89.0444,"dy":0.0017,"dx":0.0017,"nx":28,"ny":28,"refTime":"2023-03-21T21:00:00:Z","depth":"0","parameterNumber":2,"parameterNumberName":"U-component_of_CURRENTS"},"data":[0,0,0,0,0,0,0,0,0,0,0,0,0,0,0,0,0,0,0,0,0,0,0,0,0,0,0,0,0,0,0,0,0,0,0,0,0,0,0,0,0,0,0,0,0,0,0,0,0,0,0,0,0,0,0,0,0,0,-0.2457,-0.2457,0,-0.2457,-0.2457,-0.2457,-0.2447,-0.2447,-0.2447,-0.2447,-0.2425,-0.2425,-0.2424,0,0,0,0,0,0,0,0,0,0,0,0,0,-0.2426,-0.2427,-0.2457,-0.2457,-0.2457,-0.2457,-0.2457,-0.2457,-0.2447,-0.2447,-0.2447,-0.2447,-0.2425,-0.2425,-0.2424,0,0,0,0,0,0,0,0,0,0,0,0,0,-0.2433,-0.2427,-0.2457,-0.2453,-0.2453,-0.2457,-0.2457,-0.2457,-0.2447,-0.2447,-0.2447,-0.2447,-0.2426,-0.2425,-0.2424,-0.2424,0,0,-0.2422,-0.2422,0,0,0,0,0,0,0,0,-0.2432,-0.2434,-0.2454,-0.2453,-0.2453,-0.2453,-0.2438,-0.2445,-0.2447,-0.2448,-0.2447,-0.2447,-0.2433,-0.2432,-0.2431,-0.2423,-0.2422,-0.2422,-0.2422,-0.2421,-0.2421,0,0,0,0,0,0,0,-0.2432,-0.2434,-0.2455,-0.2454,-0.2454,-0.2444,-0.2445,-0.2439,-0.244,-0.2448,-0.2448,-0.245,-0.2433,-0.2432,-0.243,-0.2422,-0.2422,-0.2421,-0.2421,-0.2421,-0.2445,-0.2446,0,0,0,0,0,0,-0.2436,-0.2433,-0.2455,-0.2456,-0.2444,-0.2445,-0.2446,-0.2452,-0.2441,-0.244,-0.245,-0.2449,-0.2433,-0.2431,-0.243,-0.2451,-0.2421,-0.2421,-0.242,-0.2444,-0.2445,-0.2446,0,0,0,0,0,0,-0.2436,-0.2438,-0.2455,-0.2445,-0.2447,-0.2446,-0.2453,-0.2452,-0.2457,-0.2443,-0.2441,-0.2457,-0.2433,-0.2431,-0.2438,-0.2449,-0.242,-0.242,-0.2442,-0.2444,-0.2445,-0.2478,0,0,0,0,0,0,-0.2435,-0.2438,-0.2449,-0.2446,-0.2448,-0.2482,-0.2453,-0.2453,-0.2459,-0.2459,-0.2448,-0.2445,-0.2432,-0.2439,-0.2437,-0.2447,-0.2419,-0.2441,-0.2443,-0.2445,-0.2476,-0.2481,-0.2485,0,0,0,0,0,-0.2434,-0.2459,-0.245,-0.2452,-0.2461,-0.2484,-0.2485,-0.2482,-0.246,-0.2481,-0.2464,-0.2446,-0.245,-0.244,-0.2437,-0.2447,-0.244,-0.2443,-0.2445,-0.2474,-0.248,-0.2485,0,0,0,0,0,0,-0.2461,-0.246,-0.245,-0.2475,-0.2487,-0.2484,-0.25,-0.2487,-0.2489,-0.2481,-0.2458,-0.2455,-0.2467,-0.2456,-0.2445,-0.2462,-0.2443,-0.2445,-0.2466,-0.2472,-0.2476,-0.2486,-0.2419,0,0,0,0,0,-0.2468,-0.2478,-0.2483,-0.2502,-0.251,-0.2501,-0.2508,-0.2505,-0.2502,-0.2502,-0.2495,-0.2483,-0.2474,-0.2472,-0.2471,-0.2478,-0.2456,-0.2485,-0.249,-0.2494,-0.2502,-0.247,-0.2472,-0.2454,-0.2454,-0.2454,0,0,-0.248,-0.2482,-0.2487,-0.2507,-0.2509,-0.2538,-0.2506,-0.2525,-0.2539,-0.2499,-0.252,-0.2501,-0.2481,-0.2491,-0.2495,-0.2483,-0.2489,-0.2497,-0.25,-0.2506,-0.2473,-0.2474,-0.2476,-0.2455,-0.2455,-0.2455,0,0,-0.2524,-0.2516,-0.2547,-0.2562,-0.2576,-0.2568,-0.2577,-0.2582,-0.2577,-0.2591,-0.256,-0.2549,-0.255,-0.2533,-0.2521,-0.2551,-0.2516,-0.2553,-0.2579,-0.2549,-0.2549,-0.255,-0.2527,-0.2525,-0.2552,-0.2552,-0.2552,0,-0.2546,-0.2583,-0.2562,-0.2604,-0.2622,-0.2586,-0.2632,-0.262,-0.2626,-0.262,-0.261,-0.2584,-0.2569,-0.2554,-0.2567,-0.256,-0.2539,-0.2556,-0.2553,-0.2553,-0.2552,-0.2528,-0.2526,-0.2554,-0.2554,-0.2554,-0.2554,0,-0.2615,-0.2651,-0.2674,-0.2705,-0.2717,-0.2752,-0.2736,-0.2739,-0.2716,-0.2697,-0.2685,-0.2652,-0.2637,-0.2625,-0.2605,-0.2595,-0.2581,-0.2561,-0.2534,-0.2556,-0.253,-0.2526,-0.2557,-0.2556,-0.2556,-0.2555,0,0,-0.265,-0.2715,-0.2723,-0.2763,-0.2776,-0.2798,-0.2806,-0.2809,-0.2806,-0.2782,-0.2778,-0.2745,-0.2708,-0.2694,-0.2655,-0.2622,-0.2602,-0.2597,-0.2595,-0.2567,-0.2539,-0.2425,-0.241,-0.2577,-0.2576,-0.2576,-0.2521,0,-0.2719,-0.2827,-0.2824,-0.2906,-0.2961,-0.2927,-0.2937,-0.292,-0.2887,-0.2871,-0.2797,-0.2783,-0.2736,-0.2726,-0.2685,-0.2626,-0.2595,-0.262,-0.2529,-0.2527,-0.2416,-0.2403,-0.2375,-0.2314,-0.2517,-0.2517,-0.2516,0,-0.2784,-0.2853,-0.2962,-0.3018,-0.3034,-0.306,-0.3058,-0.3064,-0.3004,-0.2974,-0.2921,-0.2866,-0.2811,-0.2769,-0.2668,-0.2685,-0.2625,-0.2569,-0.2565,-0.2446,-0.2406,-0.2326,-0.23,-0.2317,-0.2511,-0.2511,-0.2512,0,-0.2832,-0.2935,-0.3027,-0.3054,-0.3112,-0.3131,-0.3136,-0.3097,-0.308,-0.3036,-0.3006,-0.2934,-0.288,-0.2804,-0.267,-0.2684,-0.2542,-0.2548,-0.2388,-0.238,-0.2331,-0.2318,-0.2302,-0.2483,-0.2483,-0.2483,-0.2484,0,-0.2904,-0.2973,-0.306,-0.312,-0.3187,-0.3195,-0.3219,-0.3206,-0.316,-0.3104,-0.3061,-0.2988,-0.2883,-0.2773,-0.2686,-0.2501,-0.2552,-0.2386,-0.235,-0.2341,-0.233,-0.2321,-0.2342,-0.2481,-0.2482,-0.2482,-0.2483,0,-0.2933,-0.3002,-0.3113,-0.3204,-0.322,-0.3263,-0.3261,-0.3226,-0.3223,-0.3146,-0.313,-0.3024,-0.2866,-0.2738,-0.2589,-0.2494,-0.2317,-0.2283,-0.2274,-0.2236,-0.2105,-0.2129,-0.2007,-0.1955,-0.2126,-0.2123,-0.212,0,-0.2961,-0.303,-0.3163,-0.3174,-0.3211,-0.3257,-0.3224,-0.3244,-0.3189,-0.313,-0.306,-0.2935,-0.2767,-0.252,-0.2342,-0.2161,-0.2166,-0.2049,-0.2063,-0.208,-0.2083,-0.2075,-0.2042,-0.2029,-0.2025,-0.2023,-0.202,0,-0.2991,-0.3041,-0.3114,-0.312,-0.3122,-0.3119,-0.3096,-0.3102,-0.3063,-0.2992,-0.2848,-0.2744,-0.2537,-0.231,-0.2097,-0.1991,-0.2028,-0.1984,-0.2017,-0.2004,-0.1984,-0.1923,-0.2097,-0.1996,-0.1999,-0.2001,-0.2002,-0.2003,-0.2961,-0.2984,-0.3006,-0.2993,-0.2978,-0.2882,-0.2844,-0.2798,-0.2701,-0.2547,-0.2583,-0.2383,-0.2303,-0.1982,-0.1885,-0.1781,-0.1782,-0.1766,-0.1795,-0.1787,-0.1722,-0.1825,-0.1664,-0.1664,-0.1665,-0.1665,-0.1665,0,-0.2797,-0.2804,-0.2816,-0.2752,-0.2624,-0.2679,-0.2631,-0.2538,-0.2375,-0.227,-0.2122,-0.2009,-0.187,-0.1842,-0.1755,-0.1661,-0.1632,-0.163,-0.1681,-0.1655,-0.1769,-0.1752,-0.1585,-0.1585,-0.1585,-0.1585,-0.1585,-0.1585,-0.2693,-0.2608,-0.2602,-0.2355,-0.2312,-0.2101,-0.2065,-0.1997,-0.1926,-0.1696,-0.1615,-0.1609,-0.1704,-0.1838,-0.1784,-0.1695,-0.1659,-0.1571,-0.156,-0.1742,-0.176,-0.1778,-0.1768,-0.1607,-0.1607,-0.1432,-0.1431,-0.143]},{"header":{"parameterUnit":"m.s-1","parameterCategory":2,"la1":30.2991,"la2":30.254,"lo1":-89.0895,"lo2":-89.0444,"dy":0.0017,"dx":0.0017,"nx":28,"ny":28,"refTime":"2023-03-21T21:00:00:Z","depth":"0","parameterNumber":3,"parameterNumberName":"V-component_of_CURRENTS"},"data":[0,0,0,0,0,0,0,0,0,0,0,0,0,0,0,0,0,0,0,0,0,0,0,0,0,0,0,0,0,0,0,0,0,0,0,0,0,0,0,0,0,0,0,0,0,0,0,0,0,0,0,0,0,0,0,0,0,0,-0.0003,-0.0002,0,0.006,0.0061,0.0061,0.0088,0.0088,0.0088,0.0088,0.0151,0.0153,0.0155,0,0,0,0,0,0,0,0,0,0,0,0,0,-0.0056,-0.0055,-0.0003,-0.0002,-0.0001,0.006,0.0061,0.0062,0.0088,0.0088,0.0088,0.0088,0.0151,0.0153,0.0155,0,0,0,0,0,0,0,0,0,0,0,0,0,-0.0017,-0.0055,-0.0003,0.0019,0.0022,0.006,0.0061,0.0062,0.0089,0.0088,0.0088,0.0088,0.015,0.0153,0.0155,0.0176,0,0,0.0164,0.0165,0,0,0,0,0,0,0,0,-0.0019,-0.0015,0.0015,0.0018,0.0021,0.0066,0.0065,0.01,0.0089,0.0064,0.0088,0.0088,0.0123,0.0128,0.014,0.0179,0.0182,0.0164,0.0165,0.0167,0.0167,0,0,0,0,0,0,0,-0.0022,-0.0017,0.0022,0.0016,0.0019,0.0041,0.0046,0.0072,0.0094,0.0066,0.0068,0.0074,0.0124,0.0138,0.0142,0.0183,0.0164,0.0166,0.0168,0.0169,0.0249,0.0249,0,0,0,0,0,0,-0.0032,-0.002,0.002,0.0024,-0.0,0.0042,0.0047,0.0052,0.0094,0.01,0.0074,0.0075,0.0133,0.0139,0.0144,0.0176,0.0167,0.0169,0.0171,0.0248,0.0249,0.0249,0,0,0,0,0,0,-0.0034,-0.0029,0.0018,0.0004,0.0011,0.0043,0.0048,0.0053,0.0067,0.01,0.0106,0.0082,0.0133,0.0141,0.0164,0.0178,0.017,0.0173,0.0248,0.0248,0.0249,0.0236,0,0,0,0,0,0,-0.0035,-0.003,-0.0031,0.0003,0.0011,0.0038,0.0048,0.0055,0.0071,0.0072,0.0108,0.0114,0.0134,0.016,0.0167,0.0182,0.0175,0.0247,0.0248,0.0249,0.0235,0.0236,0.0236,0,0,0,0,0,-0.0038,-0.004,-0.0031,-0.0026,0.0009,0.0038,0.0045,0.0067,0.0071,0.0078,0.0099,0.0113,0.0171,0.0163,0.0171,0.0186,0.0247,0.0248,0.0249,0.0235,0.0236,0.0236,0,0,0,0,0,0,-0.0065,-0.0036,-0.0026,-0.0021,0.0006,0.0043,0.0051,0.0066,0.0089,0.009,0.0117,0.0125,0.0152,0.017,0.016,0.0212,0.0213,0.0215,0.0199,0.02,0.02,0.0202,0.0177,0,0,0,0,0,-0.0071,-0.0066,-0.0032,-0.0028,-0.0014,0.0018,0.0032,0.0049,0.0074,0.0084,0.011,0.0138,0.0165,0.018,0.0207,0.0234,0.0251,0.025,0.025,0.025,0.0258,0.0269,0.0271,0.0253,0.0253,0.0253,0,0,-0.0084,-0.0066,-0.0064,-0.0034,-0.0011,0.0013,0.0026,0.0047,0.0067,0.0088,0.0119,0.0139,0.0171,0.0202,0.0216,0.0217,0.027,0.0252,0.0252,0.0259,0.0271,0.0272,0.0274,0.0254,0.0254,0.0254,0,0,-0.0098,-0.0085,-0.0081,-0.0054,-0.002,0.0004,0.0008,0.0048,0.0065,0.0096,0.0115,0.0141,0.0185,0.0211,0.023,0.0248,0.0269,0.0257,0.0264,0.0274,0.0276,0.0277,0.032,0.0326,0.0259,0.0259,0.0259,0,-0.0116,-0.01,-0.0075,-0.0054,-0.0032,-0.0001,0.0018,0.0044,0.0084,0.0101,0.0103,0.017,0.0193,0.0234,0.0241,0.025,0.0266,0.0257,0.0274,0.0275,0.0277,0.0321,0.0327,0.0258,0.0258,0.0259,0.0259,0,-0.012,-0.01,-0.0093,-0.0056,-0.0029,-0.001,0.0033,0.0057,0.008,0.0107,0.0148,0.0179,0.022,0.0231,0.0244,0.0273,0.0285,0.0269,0.0269,0.0278,0.0324,0.0331,0.0258,0.0258,0.0258,0.0258,0,0,-0.0184,-0.0111,-0.0111,-0.0084,-0.0028,-0.0009,0.0032,0.0075,0.0101,0.0136,0.0172,0.0214,0.023,0.0252,0.0271,0.0283,0.0313,0.028,0.0281,0.0318,0.0359,0.0387,0.0397,0.0289,0.029,0.029,0.0393,0,-0.0198,-0.0167,-0.0117,-0.0081,-0.006,-0.0002,0.0036,0.008,0.0118,0.016,0.0195,0.0233,0.0238,0.0257,0.0271,0.0304,0.0326,0.0289,0.035,0.0353,0.0371,0.0403,0.0371,0.046,0.0399,0.04,0.0401,0,-0.0229,-0.0197,-0.0172,-0.0087,-0.0071,-0.0043,0.0021,0.0065,0.0133,0.0163,0.0206,0.0242,0.029,0.0277,0.0342,0.0315,0.0339,0.0358,0.0362,0.0396,0.0392,0.0439,0.0474,0.0575,0.0411,0.041,0.041,0,-0.0317,-0.0236,-0.0221,-0.0196,-0.0102,-0.0075,-0.0023,0.0051,0.0097,0.0162,0.0202,0.0256,0.0302,0.0323,0.0389,0.0358,0.046,0.042,0.0475,0.0479,0.047,0.0472,0.0604,0.0456,0.0456,0.0456,0.0455,0,-0.0371,-0.0357,-0.0261,-0.0258,-0.0217,-0.013,-0.0083,-0.0025,0.0066,0.0141,0.0193,0.027,0.031,0.0386,0.0408,0.0487,0.048,0.0495,0.0506,0.0468,0.0468,0.0569,0.062,0.046,0.0459,0.0458,0.0457,0,-0.0489,-0.0428,-0.0398,-0.03,-0.0266,-0.0244,-0.0118,-0.0059,0.0017,0.0119,0.0146,0.0283,0.0394,0.0451,0.0524,0.0534,0.0638,0.061,0.0586,0.0591,0.0706,0.0756,0.0916,0.0939,0.0676,0.0677,0.0678,0,-0.0547,-0.0552,-0.0457,-0.0415,-0.0372,-0.0308,-0.0235,-0.0119,-0.0031,0.015,0.0216,0.0352,0.048,0.061,0.0629,0.0684,0.0738,0.0695,0.0621,0.0735,0.0797,0.0832,0.0841,0.0617,0.0617,0.0618,0.0618,0,-0.0649,-0.0624,-0.0585,-0.0489,-0.0414,-0.0318,-0.0199,-0.0137,0.0041,0.0125,0.0325,0.0435,0.0578,0.0659,0.0721,0.0729,0.076,0.0706,0.0815,0.077,0.0824,0.0842,0.0558,0.0622,0.0621,0.0621,0.0621,0.0621,-0.0721,-0.0707,-0.062,-0.0523,-0.0423,-0.0272,-0.0179,-0.0054,0.0086,0.0231,0.0344,0.0457,0.062,0.0704,0.0752,0.0835,0.0823,0.083,0.0887,0.0918,0.0925,0.0675,0.0748,0.0748,0.0748,0.0749,0.0749,0,-0.0762,-0.0704,-0.0628,-0.0473,-0.0328,-0.027,-0.0088,0.0009,0.0171,0.0186,0.0289,0.047,0.0624,0.0776,0.0947,0.1011,0.0979,0.1055,0.1085,0.1085,0.0853,0.0833,0.0936,0.0936,0.0936,0.0936,0.0936,0.0936,-0.0775,-0.0702,-0.0628,-0.0376,-0.0256,-0.0052,0.0065,0.0143,0.0179,0.0243,0.0283,0.0323,0.0676,0.112,0.1324,0.1284,0.1357,0.1331,0.1407,0.1241,0.1224,0.1207,0.12,0.1379,0.138,0.1573,0.1576,0.1577]}],[{"header":{"parameterUnit":"m.s-1","parameterCategory":2,"la1":30.2991,"la2":30.254,"lo1":-89.0895,"lo2":-89.0444,"dy":0.0017,"dx":0.0017,"nx":28,"ny":28,"refTime":"2023-03-21T21:00:00:Z","depth":"2","parameterNumber":2,"parameterNumberName":"U-component_of_CURRENTS"},"data":[0,0,0,0,0,0,0,0,0,0,0,0,0,0,0,0,0,0,0,0,0,0,0,0,0,0,0,0,0,0,0,0,0,0,0,0,0,0,0,0,0,0,0,0,0,0,0,0,0,0,0,0,0,0,0,0,0,0,-0.2378,-0.2378,0,-0.2382,-0.2382,-0.2382,-0.237,-0.237,-0.237,-0.237,-0.2357,-0.2357,-0.2357,0,0,0,0,0,0,0,0,0,0,0,0,0,-0.2341,-0.2342,-0.2378,-0.2378,-0.2378,-0.2382,-0.2382,-0.2382,-0.237,-0.237,-0.237,-0.237,-0.2357,-0.2357,-0.2357,0,0,0,0,0,0,0,0,0,0,0,0,0,-0.235,-0.2342,-0.2378,-0.2375,-0.2375,-0.2382,-0.2382,-0.2382,-0.237,-0.237,-0.237,-0.237,-0.2358,-0.2357,-0.2357,-0.236,0,0,-0.2356,-0.2356,0,0,0,0,0,0,0,0,-0.235,-0.2351,-0.2375,-0.2375,-0.2375,-0.2377,-0.2365,-0.2374,-0.237,-0.2369,-0.237,-0.237,-0.2364,-0.2363,-0.2362,-0.2359,-0.2359,-0.2356,-0.2356,-0.2356,-0.2356,0,0,0,0,0,0,0,-0.2349,-0.2351,-0.2377,-0.2375,-0.2375,-0.2367,-0.2368,-0.2366,-0.2366,-0.237,-0.2369,-0.2374,-0.2364,-0.2362,-0.2361,-0.2359,-0.2356,-0.2356,-0.2356,-0.2356,-0.2385,-0.2386,0,0,0,0,0,0,-0.2355,-0.2351,-0.2377,-0.2377,-0.2364,-0.2368,-0.2369,-0.2375,-0.2366,-0.2366,-0.2374,-0.2373,-0.2363,-0.2362,-0.2361,-0.2385,-0.2356,-0.2356,-0.2355,-0.2385,-0.2386,-0.2387,0,0,0,0,0,0,-0.2354,-0.2357,-0.2377,-0.2366,-0.2368,-0.2369,-0.2376,-0.2375,-0.2383,-0.237,-0.2369,-0.2383,-0.2362,-0.2361,-0.2372,-0.2383,-0.2355,-0.2355,-0.2383,-0.2385,-0.2386,-0.2419,0,0,0,0,0,0,-0.2353,-0.2357,-0.2371,-0.2366,-0.2369,-0.2406,-0.2376,-0.2376,-0.2386,-0.2385,-0.2378,-0.2376,-0.2362,-0.2373,-0.2372,-0.2382,-0.2355,-0.2382,-0.2384,-0.2386,-0.2417,-0.2421,-0.2426,0,0,0,0,0,-0.2351,-0.2379,-0.2372,-0.2375,-0.2386,-0.2407,-0.2409,-0.2406,-0.2387,-0.2407,-0.2392,-0.2376,-0.2383,-0.2374,-0.2372,-0.2383,-0.2381,-0.2384,-0.2386,-0.2415,-0.2421,-0.2425,0,0,0,0,0,0,-0.2379,-0.238,-0.2372,-0.2401,-0.2412,-0.2407,-0.2425,-0.2414,-0.2417,-0.2411,-0.2389,-0.2387,-0.2401,-0.2392,-0.2381,-0.2398,-0.238,-0.2382,-0.2403,-0.2408,-0.2412,-0.2425,-0.2355,0,0,0,0,0,-0.2389,-0.2402,-0.2407,-0.2429,-0.2437,-0.2429,-0.2437,-0.2433,-0.2431,-0.2432,-0.2425,-0.2415,-0.2408,-0.2408,-0.2407,-0.2417,-0.2397,-0.2424,-0.2429,-0.2432,-0.2443,-0.2413,-0.2415,-0.2394,-0.2394,-0.2394,0,0,-0.2405,-0.2407,-0.2415,-0.2435,-0.2438,-0.2466,-0.2434,-0.2454,-0.2467,-0.243,-0.2451,-0.2434,-0.2415,-0.2426,-0.2431,-0.242,-0.2429,-0.2435,-0.2438,-0.2447,-0.2416,-0.2418,-0.2419,-0.2395,-0.2395,-0.2395,0,0,-0.245,-0.2446,-0.2478,-0.2492,-0.2506,-0.2499,-0.2508,-0.2512,-0.2506,-0.2522,-0.2491,-0.2482,-0.2486,-0.2468,-0.2457,-0.2487,-0.2454,-0.2489,-0.2517,-0.2488,-0.2489,-0.249,-0.2466,-0.2464,-0.2488,-0.2488,-0.2488,0,-0.2478,-0.2512,-0.2494,-0.2532,-0.2551,-0.2518,-0.2562,-0.255,-0.2555,-0.255,-0.254,-0.2519,-0.2505,-0.2492,-0.2504,-0.2496,-0.2476,-0.2495,-0.2492,-0.2493,-0.2493,-0.2468,-0.2466,-0.249,-0.249,-0.249,-0.249,0,-0.2541,-0.258,-0.2602,-0.2631,-0.2645,-0.2679,-0.2662,-0.2665,-0.2645,-0.2627,-0.2617,-0.2586,-0.2574,-0.2562,-0.2543,-0.2535,-0.252,-0.25,-0.2475,-0.2497,-0.247,-0.2466,-0.2493,-0.2492,-0.2492,-0.2491,0,0,-0.2584,-0.2642,-0.265,-0.269,-0.2702,-0.2725,-0.2732,-0.2735,-0.2734,-0.2711,-0.2709,-0.268,-0.2646,-0.2633,-0.2595,-0.2565,-0.2546,-0.254,-0.2537,-0.251,-0.2485,-0.2352,-0.2335,-0.2521,-0.2521,-0.2521,-0.2465,0,-0.265,-0.2749,-0.2745,-0.2828,-0.2882,-0.285,-0.286,-0.2844,-0.2814,-0.2801,-0.273,-0.272,-0.2674,-0.2667,-0.2628,-0.257,-0.2541,-0.2564,-0.2474,-0.2472,-0.2345,-0.2328,-0.2188,-0.2115,-0.2462,-0.2461,-0.2461,0,-0.2711,-0.2775,-0.2877,-0.2939,-0.2955,-0.2983,-0.2985,-0.2991,-0.2934,-0.2907,-0.2858,-0.2805,-0.2753,-0.2714,-0.2615,-0.2631,-0.2573,-0.2518,-0.2514,-0.2377,-0.2332,-0.215,-0.2096,-0.2455,-0.2456,-0.2456,-0.2456,0,-0.2759,-0.2859,-0.2945,-0.2972,-0.303,-0.3052,-0.3062,-0.3026,-0.3008,-0.2971,-0.2943,-0.2876,-0.2823,-0.2751,-0.2619,-0.2632,-0.2493,-0.2499,-0.2322,-0.2312,-0.2169,-0.2146,-0.2437,-0.2438,-0.2438,-0.2438,-0.2438,0,-0.2828,-0.2896,-0.2979,-0.3036,-0.3106,-0.3118,-0.3146,-0.3139,-0.3094,-0.3017,-0.3001,-0.2912,-0.2827,-0.2719,-0.2635,-0.2442,-0.2503,-0.232,-0.2281,-0.2175,-0.2155,-0.2435,-0.2435,-0.2436,-0.2436,-0.2437,-0.2437,0,-0.2857,-0.292,-0.3027,-0.3118,-0.3138,-0.3184,-0.319,-0.3144,-0.3156,-0.3053,-0.3036,-0.294,-0.2782,-0.2677,-0.2532,-0.243,-0.2293,-0.2214,-0.2091,-0.2037,-0.2143,-0.2146,-0.2042,-0.2036,-0.2032,-0.2028,-0.2025,0,-0.2868,-0.2936,-0.3077,-0.3084,-0.3122,-0.3174,-0.3128,-0.3158,-0.3072,-0.3009,-0.2904,-0.2805,-0.2546,-0.2327,-0.2207,-0.2036,-0.2135,-0.1834,-0.1829,-0.2125,-0.2099,-0.2109,-0.2118,-0.1665,-0.1659,-0.1654,-0.165,0,-0.286,-0.2923,-0.2988,-0.3014,-0.3005,-0.2995,-0.2949,-0.2902,-0.2836,-0.2751,-0.2521,-0.2345,-0.2173,-0.1899,-0.1764,-0.1666,-0.1857,-0.1728,-0.2054,-0.1775,-0.1761,-0.1738,-0.1761,-0.1608,-0.1612,-0.1615,-0.1617,-0.1619,-0.2783,-0.2792,-0.2821,-0.2811,-0.2817,-0.2667,-0.2579,-0.2482,-0.2312,-0.2093,-0.2114,-0.1837,-0.1781,-0.1452,-0.1362,-0.1391,-0.1499,-0.1461,-0.148,-0.1503,-0.1457,-0.1434,-0.1212,-0.1214,-0.1216,-0.1217,-0.1219,0,-0.2568,-0.2536,-0.2544,-0.2481,-0.2384,-0.2472,-0.2295,-0.2114,-0.181,-0.1741,-0.1548,-0.126,-0.1091,-0.1121,-0.1067,-0.1023,-0.1067,-0.1016,-0.1093,-0.1133,-0.1169,-0.1112,-0.0773,-0.0772,-0.0771,-0.077,0,0,-0.2406,-0.2258,-0.2219,-0.196,-0.1976,-0.1736,-0.1596,-0.1386,-0.1275,-0.0998,-0.0929,-0.1005,-0.1005,-0.087,-0.0848,-0.0809,-0.0968,-0.0776,-0.1125,-0.1251,-0.1287,-0.1406,-0.1358,0,0,0,0,0]},{"header":{"parameterUnit":"m.s-1","parameterCategory":2,"la1":30.2991,"la2":30.254,"lo1":-89.0895,"lo2":-89.0444,"dy":0.0017,"dx":0.0017,"nx":28,"ny":28,"refTime":"2023-03-21T21:00:00:Z","depth":"2","parameterNumber":3,"parameterNumberName":"V-component_of_CURRENTS"},"data":[0,0,0,0,0,0,0,0,0,0,0,0,0,0,0,0,0,0,0,0,0,0,0,0,0,0,0,0,0,0,0,0,0,0,0,0,0,0,0,0,0,0,0,0,0,0,0,0,0,0,0,0,0,0,0,0,0,0,-0.0073,-0.0072,0,-0.0009,-0.0008,-0.0007,0.0018,0.0018,0.0018,0.0018,0.0089,0.0091,0.0093,0,0,0,0,0,0,0,0,0,0,0,0,0,-0.0125,-0.0125,-0.0073,-0.0072,-0.0071,-0.0009,-0.0008,-0.0007,0.0018,0.0018,0.0018,0.0018,0.0089,0.0091,0.0093,0,0,0,0,0,0,0,0,0,0,0,0,0,-0.0087,-0.0125,-0.0073,-0.0051,-0.0048,-0.0009,-0.0008,-0.0007,0.0018,0.0018,0.0018,0.0017,0.0088,0.0091,0.0094,0.0117,0,0,0.0103,0.0105,0,0,0,0,0,0,0,0,-0.0089,-0.0085,-0.0055,-0.0053,-0.0049,-0.0003,0.0,0.0035,0.0018,-0.0008,0.0018,0.0017,0.0059,0.0065,0.0077,0.012,0.0124,0.0103,0.0105,0.0107,0.0108,0,0,0,0,0,0,0,-0.0092,-0.0087,-0.0048,-0.0054,-0.0051,-0.0028,-0.0023,0.0007,0.0026,-0.0005,-0.0003,0.0005,0.0061,0.0074,0.0079,0.0125,0.0103,0.0106,0.0108,0.0109,0.0195,0.0195,0,0,0,0,0,0,-0.0101,-0.009,-0.005,-0.0046,-0.007,-0.0027,-0.0021,-0.0018,0.0026,0.0032,0.0005,0.0005,0.0069,0.0075,0.0081,0.0115,0.0107,0.011,0.0111,0.0194,0.0195,0.0195,0,0,0,0,0,0,-0.0103,-0.0098,-0.0052,-0.0066,-0.0058,-0.0026,-0.0022,-0.0017,-0.0001,0.0033,0.004,0.0015,0.0069,0.0077,0.0103,0.0117,0.0111,0.0114,0.0194,0.0194,0.0195,0.0179,0,0,0,0,0,0,-0.0104,-0.0099,-0.0097,-0.0067,-0.0058,-0.0031,-0.0022,-0.0015,0.0004,0.0006,0.0044,0.0051,0.0069,0.0099,0.0106,0.0122,0.0116,0.0193,0.0194,0.0195,0.0179,0.0179,0.0179,0,0,0,0,0,-0.0107,-0.0107,-0.0098,-0.0092,-0.0057,-0.0031,-0.0024,-0.0002,0.0005,0.0012,0.0033,0.0049,0.0109,0.0101,0.011,0.0127,0.0193,0.0194,0.0195,0.0179,0.0179,0.0179,0,0,0,0,0,0,-0.0132,-0.0104,-0.0093,-0.0085,-0.0059,-0.0026,-0.0016,-0.0,0.0024,0.0025,0.0054,0.0062,0.0091,0.011,0.01,0.0153,0.0155,0.0158,0.014,0.014,0.014,0.0146,0.0119,0,0,0,0,0,-0.0136,-0.0129,-0.0096,-0.0091,-0.0077,-0.0045,-0.0031,-0.0015,0.001,0.002,0.0047,0.0075,0.0104,0.0121,0.0147,0.0177,0.0195,0.0194,0.0194,0.0193,0.0204,0.0216,0.0218,0.0198,0.0198,0.0198,0,0,-0.0145,-0.0128,-0.0124,-0.0095,-0.0073,-0.0051,-0.0037,-0.0016,0.0003,0.0025,0.0055,0.0077,0.0111,0.0141,0.0156,0.0158,0.0213,0.0195,0.0194,0.0205,0.0217,0.0219,0.0221,0.0199,0.0199,0.0199,0,0,-0.016,-0.0144,-0.0139,-0.0114,-0.008,-0.0057,-0.0052,-0.0015,0.0001,0.0033,0.0052,0.008,0.0125,0.015,0.0169,0.0188,0.0211,0.0197,0.0205,0.0216,0.0218,0.0219,0.0261,0.0267,0.0198,0.0198,0.0198,0,-0.0172,-0.0159,-0.0133,-0.0115,-0.0093,-0.0061,-0.0044,-0.0019,0.0019,0.0037,0.004,0.0109,0.0133,0.0175,0.018,0.019,0.0205,0.02,0.0216,0.0217,0.0219,0.0262,0.0268,0.0198,0.0198,0.0198,0.0198,0,-0.0181,-0.016,-0.0154,-0.012,-0.0093,-0.0075,-0.0034,-0.001,0.0015,0.0041,0.0085,0.0117,0.016,0.0171,0.0184,0.0215,0.0226,0.021,0.0212,0.022,0.0265,0.0272,0.0197,0.0197,0.0197,0.0197,0,0,-0.024,-0.0174,-0.0173,-0.0148,-0.0093,-0.0074,-0.0036,0.0006,0.0033,0.0069,0.0106,0.0151,0.017,0.0193,0.0213,0.0226,0.0256,0.0224,0.0225,0.0262,0.0303,0.0289,0.0295,0.0233,0.0234,0.0234,0.0334,0,-0.0256,-0.0234,-0.0185,-0.015,-0.0132,-0.0072,-0.0036,0.0008,0.0048,0.0091,0.0129,0.017,0.0178,0.02,0.0215,0.0248,0.0271,0.0233,0.0294,0.0297,0.0279,0.03,0.0213,0.0292,0.0341,0.0342,0.0343,0,-0.0291,-0.0264,-0.0246,-0.0161,-0.0145,-0.0115,-0.0049,-0.0007,0.0062,0.0093,0.0142,0.0179,0.0232,0.022,0.0289,0.0262,0.0286,0.0305,0.0308,0.0305,0.0294,0.029,0.0302,0.0354,0.0353,0.0352,0.0352,0,-0.0379,-0.0303,-0.0294,-0.027,-0.0179,-0.0149,-0.0094,-0.0019,0.0023,0.0095,0.0134,0.0195,0.0241,0.0268,0.0335,0.0305,0.0407,0.0368,0.0385,0.0386,0.0331,0.0325,0.0406,0.0406,0.0405,0.0405,0.0405,0,-0.0435,-0.0423,-0.0333,-0.0333,-0.0293,-0.0203,-0.0155,-0.0094,-0.0004,0.0041,0.0127,0.0169,0.025,0.0326,0.0353,0.0412,0.0427,0.0402,0.0407,0.0326,0.0318,0.0381,0.0377,0.0409,0.0408,0.0407,0.0407,0,-0.0552,-0.0498,-0.0475,-0.0379,-0.0343,-0.0322,-0.0192,-0.015,-0.0055,0.0009,0.0035,0.0166,0.0271,0.0375,0.045,0.0447,0.0492,0.0506,0.0429,0.0421,0.0458,0.0452,0.052,0.052,0.0521,0.0521,0.0521,0,-0.0618,-0.0627,-0.0538,-0.0506,-0.0463,-0.0397,-0.0343,-0.0216,-0.0182,-0.0011,-0.0006,0.0164,0.0173,0.033,0.043,0.051,0.0547,0.0474,0.0385,0.0471,0.0469,0.0462,0.0456,0.0323,0.0321,0.032,0.0319,0,-0.0741,-0.0716,-0.0688,-0.0616,-0.0559,-0.051,-0.0436,-0.0451,-0.0307,-0.0235,-0.0178,-0.015,0.0076,0.0142,0.0327,0.035,0.045,0.0448,0.0566,0.0297,0.0289,0.0286,0.0285,0.0308,0.0309,0.031,0.0311,0.0311,-0.0837,-0.0844,-0.0787,-0.0727,-0.065,-0.0668,-0.0676,-0.0599,-0.0585,-0.0449,-0.0372,-0.0241,-0.0103,0.0116,0.0217,0.0388,0.0375,0.0357,0.0359,0.0363,0.0312,0.0303,0.0318,0.0319,0.032,0.0321,0.0322,0,-0.09,-0.0908,-0.088,-0.0838,-0.0812,-0.0705,-0.0736,-0.0724,-0.0731,-0.055,-0.0434,-0.0313,-0.0217,0.0016,0.0211,0.0249,0.023,0.029,0.0248,0.0255,0.0262,0.0206,0.0185,0.0186,0.0186,0.0187,0,0,-0.0943,-0.0949,-0.0943,-0.0983,-0.0934,-0.091,-0.0948,-0.0875,-0.0777,-0.0658,-0.0476,-0.0281,-0.0183,-0.0042,0.0039,0.0138,0.0181,0.0136,0.022,0.016,0.0168,0.0257,0.0173,0,0,0,0,0]}],[{"header":{"parameterUnit":"m.s-1","parameterCategory":2,"la1":30.2991,"la2":30.254,"lo1":-89.0895,"lo2":-89.0444,"dy":0.0017,"dx":0.0017,"nx":28,"ny":28,"refTime":"2023-03-21T21:00:00:Z","depth":"4","parameterNumber":2,"parameterNumberName":"U-component_of_CURRENTS"},"data":[0,0,0,0,0,0,0,0,0,0,0,0,0,0,0,0,0,0,0,0,0,0,0,0,0,0,0,0,0,0,0,0,0,0,0,0,0,0,0,0,0,0,0,0,0,0,0,0,0,0,0,0,0,0,0,0,0,0,-0.0439,-0.044,0,-0.049,-0.0491,-0.0491,-0.0501,-0.05,-0.05,-0.05,-0.0562,-0.0564,-0.0565,0,0,0,0,0,0,0,0,0,0,0,0,0,-0.0357,-0.0358,-0.0439,-0.044,-0.0441,-0.049,-0.0491,-0.0492,-0.0501,-0.05,-0.05,-0.05,-0.0561,-0.0563,-0.0566,0,0,0,0,0,0,0,0,0,0,0,0,0,-0.0398,-0.0358,-0.0439,-0.0452,-0.0454,-0.049,-0.0491,-0.0492,-0.0501,-0.05,-0.05,-0.0499,-0.056,-0.0563,-0.0566,-0.0594,0,0,-0.0575,-0.0576,0,0,0,0,0,0,0,0,-0.0395,-0.0401,-0.0449,-0.0451,-0.0453,-0.0489,-0.0485,-0.0527,-0.0501,-0.0482,-0.05,-0.0499,-0.054,-0.0544,-0.0553,-0.0597,-0.06,-0.0575,-0.0577,-0.0578,-0.0579,0,0,0,0,0,0,0,-0.0392,-0.0398,-0.0458,-0.045,-0.0452,-0.0458,-0.0463,-0.0493,-0.0512,-0.0484,-0.0485,-0.0492,-0.054,-0.055,-0.0555,-0.0601,-0.0575,-0.0578,-0.058,-0.0581,-0.0737,-0.074,0,0,0,0,0,0,-0.0389,-0.0396,-0.0457,-0.046,-0.0423,-0.046,-0.0465,-0.0478,-0.0512,-0.0517,-0.0492,-0.0492,-0.0546,-0.0551,-0.0557,-0.0668,-0.0578,-0.0581,-0.0583,-0.0735,-0.0738,-0.074,0,0,0,0,0,0,-0.0387,-0.0394,-0.0455,-0.0429,-0.0438,-0.0462,-0.0475,-0.0479,-0.0499,-0.0519,-0.0523,-0.051,-0.0546,-0.0553,-0.0596,-0.0667,-0.0582,-0.0585,-0.0732,-0.0736,-0.0739,-0.084,0,0,0,0,0,0,-0.0384,-0.0393,-0.04,-0.0429,-0.0439,-0.0478,-0.0476,-0.048,-0.0504,-0.0505,-0.0536,-0.054,-0.0546,-0.0592,-0.0599,-0.067,-0.0587,-0.0729,-0.0734,-0.0738,-0.0834,-0.0847,-0.0858,0,0,0,0,0,-0.0381,-0.0391,-0.04,-0.0408,-0.0449,-0.0479,-0.0484,-0.0498,-0.0506,-0.0515,-0.0542,-0.054,-0.0626,-0.0596,-0.0604,-0.0677,-0.0727,-0.0732,-0.0738,-0.0829,-0.0845,-0.0858,0,0,0,0,0,0,-0.036,-0.0394,-0.0405,-0.0425,-0.0452,-0.048,-0.0486,-0.0508,-0.0538,-0.0542,-0.056,-0.0567,-0.0632,-0.0636,-0.0602,-0.0735,-0.0681,-0.0688,-0.0748,-0.0763,-0.0774,-0.0809,-0.059,0,0,0,0,0,-0.036,-0.0383,-0.041,-0.0434,-0.0436,-0.0467,-0.0482,-0.0501,-0.0531,-0.0543,-0.057,-0.0609,-0.0661,-0.0693,-0.0719,-0.0791,-0.0791,-0.0846,-0.0858,-0.0868,-0.0903,-0.0973,-0.0995,-0.0758,-0.0758,-0.0758,0,0,-0.0364,-0.0385,-0.04,-0.0432,-0.0446,-0.047,-0.0474,-0.0502,-0.054,-0.0547,-0.06,-0.064,-0.0683,-0.0761,-0.0794,-0.0777,-0.0925,-0.0875,-0.0884,-0.0913,-0.0981,-0.1004,-0.1025,-0.0762,-0.0761,-0.0761,0,0,-0.0373,-0.0392,-0.0403,-0.0426,-0.0455,-0.048,-0.0492,-0.053,-0.0554,-0.0622,-0.0642,-0.0739,-0.0788,-0.0863,-0.0902,-0.1002,-0.0973,-0.0997,-0.1108,-0.1176,-0.1196,-0.1214,-0.1194,-0.121,-0.102,-0.102,-0.102,0,-0.0369,-0.0394,-0.0413,-0.0427,-0.045,-0.0486,-0.0508,-0.0545,-0.0604,-0.063,-0.0647,-0.0794,-0.0857,-0.0978,-0.1048,-0.1038,-0.1025,-0.1049,-0.1193,-0.1211,-0.1228,-0.1204,-0.122,-0.1026,-0.1025,-0.1025,-0.1024,0,-0.0381,-0.0406,-0.0412,-0.0449,-0.0479,-0.0505,-0.0554,-0.0602,-0.0654,-0.069,-0.0804,-0.091,-0.1009,-0.1062,-0.1112,-0.1269,-0.1198,-0.1185,-0.1157,-0.1259,-0.1225,-0.124,-0.1034,-0.1032,-0.103,-0.1029,0,0,-0.0359,-0.0406,-0.0412,-0.0431,-0.0492,-0.0518,-0.0591,-0.0651,-0.0712,-0.0797,-0.0877,-0.1067,-0.1126,-0.1182,-0.1256,-0.1374,-0.1516,-0.1362,-0.1362,-0.1342,-0.1595,-0.1352,-0.1343,-0.1517,-0.1521,-0.1525,-0.1504,0,-0.0356,-0.0385,-0.0421,-0.0471,-0.0487,-0.0554,-0.063,-0.0701,-0.0773,-0.0854,-0.0976,-0.1098,-0.116,-0.1273,-0.1385,-0.1522,-0.1568,-0.1519,-0.1501,-0.15,-0.1274,-0.1359,-0.1539,-0.1515,-0.1518,-0.1521,-0.1523,0,-0.0352,-0.0374,-0.0407,-0.0491,-0.0505,-0.0555,-0.0676,-0.0753,-0.0866,-0.0945,-0.1063,-0.1128,-0.1365,-0.1381,-0.1613,-0.1573,-0.1591,-0.1654,-0.1653,-0.1413,-0.1287,-0.1405,-0.1549,-0.1547,-0.1545,-0.1543,-0.1542,0,-0.0317,-0.0372,-0.0398,-0.0421,-0.0519,-0.0566,-0.0644,-0.0769,-0.0824,-0.1017,-0.1075,-0.1278,-0.1412,-0.1536,-0.1605,-0.1673,-0.173,-0.1827,-0.157,-0.1549,-0.1728,-0.1709,-0.1895,-0.1895,-0.1895,-0.1895,-0.1895,0,-0.0297,-0.0319,-0.0384,-0.0396,-0.0465,-0.0555,-0.0654,-0.0772,-0.0892,-0.0929,-0.1121,-0.116,-0.1469,-0.1477,-0.1574,-0.1556,-0.1679,-0.1605,-0.1552,-0.1759,-0.1745,-0.1734,-0.1715,-0.1894,-0.1894,-0.1894,-0.1894,0,-0.0255,-0.0288,-0.0326,-0.0414,-0.0444,-0.0505,-0.0625,-0.0689,-0.0849,-0.0904,-0.0975,-0.1125,-0.1245,-0.1321,-0.1501,-0.1487,-0.1524,-0.1405,-0.1504,-0.1452,-0.1335,-0.1323,-0.135,-0.1342,-0.1335,-0.1329,-0.1325,0,-0.0239,-0.0247,-0.0321,-0.0341,-0.0374,-0.0467,-0.0527,-0.0676,-0.0715,-0.0814,-0.08,-0.0907,-0.0989,-0.1008,-0.1156,-0.1237,-0.1196,-0.1191,-0.145,-0.1346,-0.1293,-0.1291,-0.1288,-0.1314,-0.1312,-0.131,-0.1308,0,-0.0203,-0.0226,-0.0249,-0.0299,-0.0337,-0.0391,-0.046,-0.0464,-0.0597,-0.0688,-0.0672,-0.0726,-0.0751,-0.0924,-0.0862,-0.0923,-0.1275,-0.1123,-0.1146,-0.1392,-0.1301,-0.1255,-0.126,-0.1284,-0.1287,-0.129,-0.1291,0,-0.017,-0.0189,-0.0221,-0.0265,-0.0295,-0.0307,-0.036,-0.0384,-0.0436,-0.0525,-0.0466,-0.0563,-0.067,-0.073,-0.0675,-0.0726,-0.0887,-0.0978,-0.1014,-0.1042,-0.0956,-0.0797,-0.0596,0,0,0,0,0,-0.0159,-0.0169,-0.019,-0.0224,-0.0243,-0.0264,-0.0307,-0.0354,-0.0406,-0.0374,-0.0438,-0.0445,-0.0507,-0.0543,-0.0575,-0.0624,-0.0892,-0.0658,-0.1015,-0.115,-0.1178,-0.111,0,0,0,0,0,0,-0.0152,-0.0152,-0.0176,-0.0174,-0.0179,-0.0198,-0.0217,-0.0249,-0.0256,-0.0311,-0.0353,-0.0413,-0.0488,-0.048,-0.0559,-0.0577,-0.0798,-0.0713,-0.0713,-0.1135,-0.116,-0.1182,-0.1122,0,0,0,0,0]},{"header":{"parameterUnit":"m.s-1","parameterCategory":2,"la1":30.2991,"la2":30.254,"lo1":-89.0895,"lo2":-89.0444,"dy":0.0017,"dx":0.0017,"nx":28,"ny":28,"refTime":"2023-03-21T21:00:00:Z","depth":"4","parameterNumber":3,"parameterNumberName":"V-component_of_CURRENTS"},"data":[0,0,0,0,0,0,0,0,0,0,0,0,0,0,0,0,0,0,0,0,0,0,0,0,0,0,0,0,0,0,0,0,0,0,0,0,0,0,0,0,0,0,0,0,0,0,0,0,0,0,0,0,0,0,0,0,0,0,-0.0452,-0.0452,0,-0.0467,-0.0467,-0.0467,-0.046,-0.046,-0.0459,-0.0459,-0.0456,-0.0456,-0.0457,0,0,0,0,0,0,0,0,0,0,0,0,0,-0.0415,-0.0416,-0.0452,-0.0452,-0.0452,-0.0467,-0.0467,-0.0468,-0.0461,-0.046,-0.0459,-0.0458,-0.0456,-0.0456,-0.0457,0,0,0,0,0,0,0,0,0,0,0,0,0,-0.0433,-0.0416,-0.0452,-0.0448,-0.0448,-0.0467,-0.0467,-0.0468,-0.0461,-0.046,-0.0459,-0.0458,-0.0455,-0.0456,-0.0457,-0.0479,0,0,-0.0459,-0.0459,0,0,0,0,0,0,0,0,-0.0432,-0.0435,-0.0449,-0.0449,-0.0448,-0.0459,-0.0453,-0.047,-0.0461,-0.0458,-0.0459,-0.0458,-0.0454,-0.0455,-0.0463,-0.0479,-0.0479,-0.0459,-0.046,-0.046,-0.046,0,0,0,0,0,0,0,-0.0431,-0.0434,-0.046,-0.0449,-0.0449,-0.0445,-0.0447,-0.0456,-0.0463,-0.0459,-0.0458,-0.0456,-0.0454,-0.0463,-0.0463,-0.0479,-0.0459,-0.046,-0.046,-0.046,-0.0536,-0.0538,0,0,0,0,0,0,-0.0426,-0.0433,-0.046,-0.046,-0.0435,-0.0446,-0.0448,-0.0458,-0.0463,-0.0462,-0.0456,-0.0455,-0.0462,-0.0462,-0.0463,-0.0524,-0.046,-0.046,-0.0461,-0.0535,-0.0536,-0.0538,0,0,0,0,0,0,-0.0425,-0.0428,-0.0459,-0.0444,-0.0448,-0.0448,-0.0459,-0.0459,-0.0473,-0.0461,-0.046,-0.047,-0.0461,-0.0462,-0.0483,-0.0523,-0.0461,-0.0461,-0.0533,-0.0535,-0.0537,-0.0625,0,0,0,0,0,0,-0.0424,-0.0428,-0.0442,-0.0444,-0.0448,-0.0477,-0.0459,-0.046,-0.0471,-0.047,-0.0473,-0.0471,-0.0461,-0.0482,-0.0484,-0.0523,-0.0462,-0.0531,-0.0534,-0.0537,-0.062,-0.063,-0.0638,0,0,0,0,0,-0.0423,-0.0444,-0.0443,-0.0447,-0.0465,-0.0478,-0.0481,-0.0478,-0.0473,-0.0487,-0.049,-0.0471,-0.0502,-0.0484,-0.0486,-0.0526,-0.0529,-0.0533,-0.0536,-0.0616,-0.0628,-0.0638,0,0,0,0,0,0,-0.0435,-0.0445,-0.0444,-0.0468,-0.0474,-0.0476,-0.0487,-0.0488,-0.0503,-0.0506,-0.0491,-0.0491,-0.0525,-0.0512,-0.0493,-0.0555,-0.0513,-0.0517,-0.0573,-0.0584,-0.0594,-0.0578,-0.0463,0,0,0,0,0,-0.0445,-0.0466,-0.0467,-0.0489,-0.0489,-0.0492,-0.0499,-0.0503,-0.051,-0.0516,-0.0521,-0.0528,-0.0543,-0.0551,-0.056,-0.0594,-0.0559,-0.062,-0.063,-0.0638,-0.0627,-0.0594,-0.0599,-0.055,-0.055,-0.055,0,0,-0.0456,-0.0464,-0.0477,-0.0493,-0.0496,-0.052,-0.0495,-0.0514,-0.0545,-0.0515,-0.0561,-0.0561,-0.0558,-0.0598,-0.0613,-0.0592,-0.0641,-0.0642,-0.0649,-0.0633,-0.0598,-0.0603,-0.0607,-0.0552,-0.0552,-0.0551,0,0,-0.0488,-0.0494,-0.052,-0.053,-0.0542,-0.0548,-0.0556,-0.0571,-0.0584,-0.0626,-0.0614,-0.0634,-0.0661,-0.0668,-0.0672,-0.0737,-0.069,-0.0745,-0.0783,-0.0753,-0.0756,-0.0758,-0.0751,-0.0752,-0.0751,-0.0751,-0.0752,0,-0.0501,-0.0536,-0.0529,-0.0555,-0.0573,-0.0563,-0.0599,-0.0615,-0.0643,-0.0664,-0.0651,-0.0697,-0.0694,-0.0737,-0.0755,-0.0758,-0.0731,-0.0743,-0.0764,-0.0765,-0.0765,-0.0757,-0.0756,-0.0756,-0.0756,-0.0755,-0.0755,0,-0.0548,-0.058,-0.0594,-0.0628,-0.0648,-0.0676,-0.0691,-0.0724,-0.0739,-0.0754,-0.0801,-0.0796,-0.0822,-0.083,-0.081,-0.083,-0.0807,-0.0777,-0.0732,-0.0775,-0.0764,-0.0762,-0.0763,-0.0761,-0.076,-0.0758,0,0,-0.0565,-0.0619,-0.0625,-0.0659,-0.0692,-0.0716,-0.0769,-0.0813,-0.0851,-0.0873,-0.0929,-0.0939,-0.0929,-0.0931,-0.0917,-0.0883,-0.0877,-0.083,-0.0826,-0.0817,-0.0819,-0.0765,-0.0758,-0.084,-0.0839,-0.0839,-0.0821,0,-0.0604,-0.0674,-0.0692,-0.0767,-0.0802,-0.0821,-0.0879,-0.092,-0.0937,-0.099,-0.0986,-0.1029,-0.0972,-0.0995,-0.0953,-0.0884,-0.0869,-0.0885,-0.0782,-0.0779,-0.072,-0.0752,-0.0837,-0.0819,-0.0818,-0.0818,-0.0817,0,-0.0644,-0.0687,-0.0769,-0.0851,-0.0869,-0.0921,-0.0998,-0.1049,-0.1101,-0.1125,-0.1144,-0.113,-0.1116,-0.1063,-0.0956,-0.0962,-0.0903,-0.0841,-0.0839,-0.0747,-0.072,-0.0758,-0.0813,-0.0813,-0.0813,-0.0814,-0.0814,0,-0.0664,-0.0744,-0.0816,-0.0841,-0.0929,-0.0983,-0.104,-0.1097,-0.1136,-0.1214,-0.1241,-0.1218,-0.1225,-0.1116,-0.0989,-0.0969,-0.0861,-0.0828,-0.0737,-0.0734,-0.0747,-0.0745,-0.0772,-0.0772,-0.0772,-0.0773,-0.0773,0,-0.0699,-0.0757,-0.0837,-0.0877,-0.0974,-0.103,-0.1123,-0.1181,-0.1247,-0.1258,-0.1313,-0.1284,-0.1227,-0.1151,-0.1024,-0.0866,-0.0894,-0.0741,-0.0717,-0.0792,-0.0794,-0.0748,-0.0745,-0.0772,-0.0772,-0.0772,-0.0772,0,-0.0718,-0.0765,-0.0852,-0.0954,-0.0988,-0.1066,-0.1166,-0.1206,-0.1295,-0.131,-0.1339,-0.1345,-0.1224,-0.1163,-0.1008,-0.0921,-0.0777,-0.0734,-0.0849,-0.0833,-0.0666,-0.0669,-0.0614,-0.0612,-0.061,-0.0608,-0.0607,0,-0.0736,-0.0784,-0.0898,-0.0938,-0.0989,-0.1092,-0.1141,-0.1232,-0.1228,-0.1268,-0.1239,-0.1224,-0.1185,-0.0976,-0.0897,-0.0747,-0.0713,-0.0701,-0.0647,-0.0663,-0.0647,-0.0652,-0.0657,-0.0604,-0.0603,-0.0603,-0.0602,0,-0.0762,-0.0809,-0.0871,-0.0953,-0.101,-0.1067,-0.1118,-0.1116,-0.1159,-0.1228,-0.1125,-0.1074,-0.0984,-0.0872,-0.0834,-0.0687,-0.0727,-0.068,-0.0682,-0.063,-0.065,-0.0637,-0.0644,-0.0596,-0.0597,-0.0598,-0.0598,0,-0.0773,-0.0817,-0.0886,-0.0955,-0.1007,-0.1008,-0.1056,-0.102,-0.104,-0.1046,-0.0968,-0.0939,-0.0935,-0.0835,-0.0722,-0.0663,-0.0607,-0.058,-0.0586,-0.0592,-0.0586,-0.0608,-0.0517,0,0,0,0,0,-0.0781,-0.0813,-0.0874,-0.0934,-0.0974,-0.1001,-0.1005,-0.1026,-0.1022,-0.0923,-0.0954,-0.084,-0.0739,-0.0712,-0.0628,-0.0668,-0.0609,-0.0568,-0.0583,-0.056,-0.0567,-0.0557,0,0,0,0,0,0,-0.0782,-0.0834,-0.0863,-0.088,-0.0912,-0.0939,-0.0938,-0.094,-0.0876,-0.0875,-0.0816,-0.0816,-0.0721,-0.0789,-0.063,-0.0616,-0.0609,-0.054,-0.0538,-0.0555,-0.0562,-0.0568,-0.056,0,0,0,0,0]}]]